Location: Balagbag Mahabang Kahoy
(14.1562°N, 120.9200°E)
Time: 05:07:56
(UTC+00:00)

Hubble Space Telescope - Pass Details

Date: 16 January 2026
Orbit: 477 x 479 km, 28.5° (Epoch: 14 February)

Event Time Altitude Azimuth Distance (km) Brightness Sun altitude
Exits shadow 21:18:15 28° 253° (WSW) 922 1.5 -16.0°
Maximum altitude 21:19:33 37° 209° (SSW) 746 1.4 -15.7°
Drops below altitude 10° 21:23:04 10° 140° (SE) 1,633 4.1 -14.9°
Sets 21:25:21 0° 132° (SE) 2,509 5.5 -14.3°
